Погода в Капри

Италия     40°33′04″N   14°14′24″E
темп.,
°C
ветер,
м/с
пор.,
м/с
влажн.,
%
обл.,
%
осадки,
мм/ч
давл.,
гПа
погр.,
м
15 мая, сб
сб1523:00+16юз578175 2.9 1010476
02:00+15з5685100 18.7 1008489
05:00+16зсз910787 1.4 1009695
08:00+16сз88742 2.2 1011976
11:00+16зсз78735 0.0 1013701
14:00+17зсз787127 0.0 1013839
17:00+17з7871100 0.0 1014740
20:00+17з5573100 0.0 1014733
16 мая, вс
вс1623:00+17зсз677148 0.0 1015738
02:00+17зсз6870100 0.0 1014769
05:00+17з2368100 0.0 1013460
08:00+18ююв4569100 0.0 1014585
11:00+18ююв557955 0.0 1015583
14:00+18ююв5578100 0.0 1015510
17:00+19ююв557770 0.0 1014501
20:00+19юв56799 0.0 1013270
17 мая, пн
пн1723:00+18ююв678231 0.0 1013289
02:00+18ююв668363 0.0 1012314
05:00+18юв66822 0.0 1012301
08:00+18юв66835 0.0 1012270
11:00+19юв44865 0.0 1013206
14:00+19юз33834 0.0 1014125
17:00+20зюз34732 0.0 1013219
20:00+19зюз34738 0.0 1014110
18 мая, вт
вт1823:00+19зюз22772 0.0 101520
02:00+19з34805 0.0 1015100
05:00+18ссз33730 0.0 1015125
08:00+18ссз23715 0.0 1015237
11:00+19зюз47670 0.0 1016830
14:00+18з78675 0.0 1017849
17:00+18з7116612 0.0 1016976
20:00+18з915610 0.0 10161033
19 мая, ср
ср1923:00+17з1011690 0.0 1017864
02:00+18зсз1111750 0.0 1017739
05:00+18зсз89670 0.0 1017698
08:00+18сз78655 0.0 1018580
11:00+17зсз236289 0.0 1019265
14:00+18з6663100 0.0 1019370
17:00+19з676941 0.0 1019644
20:00+18з57682 0.0 1019789